Regional Weather Roundup
Issued by NWS San Diego, CA

Current Version | Previous Version | Text Only | Print | Product List | Glossary On
Versions: 1 2 3 4 5 6 7 8 9 10 11 12 13 14 15 16 17 18 19 20 21 22 23 24 25 26 27 28 29 30 31 32 33 34 35 36 37 38 39 40 41 42 43 44 45 46 47 48 49 50
000
ASUS46 KSGX 272210
RWRSGX

SAN DIEGO HOURLY WEATHER ROUNDUP
NATIONAL WEATHER SERVICE SAN DIEGO CA
200 PM PST SAT DEC 27 2014

NOTE: "FAIR" INDICATES FEW OR NO CLOUDS BELOW 12,000 FEET WITH NO
SIGNIFICANT WEATHER AND/OR OBSTRUCTIONS TO VISIBILITY.

CAZ042-043-060-061-PZZ750-775-272300-

GREATER SAN DIEGO AREA

CITY           SKY/WX    TMP DP  RH WIND       PRES   REMARKS
LINDBERGH FLD  PTSUNNY   61  18  18 W10       30.29R
POINT LOMA       N/A     59  21  23 W12         N/A
NATIONAL CITY    N/A     62  24  23 W3        30.28S
CHULA VISTA      N/A     61  23  23 NW6       30.21R
IMPERIAL BEACH SUNNY     62  21  20 NW13      30.27S
BROWN FIELD    SUNNY     62  16  16 NW8       30.26R
MIRAMAR MCAS   MOSUNNY   60  23  24 W13       30.26S
MONTGOMERY FLD SUNNY     60  23  24 W12       30.27S

$$

NORTH SAN DIEGO COUNTY

CITY           SKY/WX    TMP DP  RH WIND       PRES   REMARKS
CAMP PENDLETON SUNNY     61  20  20 W8        30.25F
OCEANSIDE AP   SUNNY     62  22  21 W6        30.25F
OCEANSIDE HBR    N/A     60  27  28 W7        30.29F
VISTA            N/A     63  22  21 CALM      30.26F
CARLSBAD       SUNNY     61  23  23 W10       30.25F
DEL MAR          N/A     61  35  37 CALM      30.30S
LA JOLLA SCRIP   N/A     58  35  41 CALM      30.25S
FALLBROOK        N/A     60  15  16 S6        30.28F
ESCONDIDO        N/A     62  16  17 CALM      30.28F
SAN MARCOS       N/A     64  18  17 CALM      30.26
POWAY            N/A     63  16  16 E3        30.29S

$$

EAST SAN DIEGO COUNTY

CITY           SKY/WX    TMP DP  RH WIND       PRES   REMARKS
RAMONA         SUNNY     58   7  13 N7        30.25S
SANTEE LAKES     N/A     64  23  21 SW2       30.28S
LA MESA          N/A     62  20  20 CALM      30.22S
JAMUL            N/A     59  21  23 SW5       30.28R
DESCANSO N       N/A     52  13  21 CALM      30.21R
MT. LAGUNA OBS   N/A     31  -2  24 N12       29.76S WCI  22
CAMPO            N/A     48   6  18 NE23G37   30.20R

$$

ORANGE COUNTY AND THE LOS ANGELES BASIN

CITY           SKY/WX    TMP DP  RH WIND       PRES   REMARKS
JOHN WAYNE AP  MOSUNNY   67   8  10 VRB7      30.27F
LAGUNA BEACH     N/A     62  27  26 CALM      30.23F
LAKE FOREST FR   N/A     65  13  13 N6        30.16F
SANTA ANA        N/A     65  25  22 N1        30.23S
HUNTINGTON BCH   N/A     65  26  23 W5        30.29F
LOS ALAMITOS   MOSUNNY   64  20  18 NW9       30.28S
FULLERTON      MOSUNNY   63  15  15 VRB6      30.27F
LONG BEACH     MOSUNNY   62  21  20 NW9       30.28F
L.A. AP        MOSUNNY   59  22  24 SW10      30.28S
L.A. DOWNTOWN  MOSUNNY   62  19  19 W3        30.28R

$$

THE INLAND EMPIRE

CITY           SKY/WX    TMP DP  RH WIND       PRES   REMARKS
CORONA         MOSUNNY   61  12  14 E8        30.27F
CHINO          MOSUNNY   60  17  18 CALM      30.28F
ONTARIO        MOSUNNY   59  15  18 SW6       30.26F
SAN BERNARDINO SUNNY    N/A N/A N/A E5        30.26F
RIVERSIDE AP   SUNNY     60   8  12 NE9       30.26F
RIV CYN CREST    N/A     61  28  28 SE5         N/A
MORENO VALLEY    N/A     57  24  28 SE7       29.45F
MARCH ARB      SUNNY     55  15  20 NE6       30.26F
HORSETHIEF CYN   N/A     57   8  14 CALM      30.29F
PERRIS           N/A     54  19  25 SE6       30.27F
MENIFEE          N/A     59  23  24 E8        30.31F
HEMET EAST       N/A     54  11  18 CALM      30.31S
FRENCH VALLEY  FAIR      57  14  18 W6        30.26F
TEMECULA         N/A     60  21  22 NW5       30.19F

$$

SAN BERNARDINO AND RIVERSIDE COUNTY MOUNTAINS

CITY           SKY/WX    TMP DP  RH WIND       PRES   REMARKS
BIG BEAR AP    SUNNY     41 -22   6 E9        30.22F
ANGELUS OAKS     N/A     38  13  37 CALM      30.30F
PINE COVE        N/A     39  11  31 S3        30.37R

$$

SOUTHERN DESERT INCLUDING THE COACHELLA VALLEY

CITY           SKY/WX    TMP DP  RH WIND       PRES   REMARKS
PALM SPRINGS   SUNNY     58   6  12 CALM      30.33F
THOUSAND PALMS   N/A     62  12  14 S1        30.29F
PALM DESERT      N/A     63  11  13 CALM        N/A
THERMAL        SUNNY     61   6  11 VRB7      30.32F
BLYTHE         SUNNY     59  11  15 N10       30.31S
IMPERIAL AP    SUNNY     60  11  14 NW12      30.32F
EL CENTRO NAS  MOSUNNY   60   9  13 N12       30.32F
YUMA AZ        MOSUNNY   61  13  15 N8G18     30.31S
MEXICALI       MOSUNNY   59   7  12 NW17      30.32

$$

UPPER DESERT

CITY           SKY/WX    TMP DP  RH WIND       PRES   REMARKS
VICTORVILLE AP SUNNY     45   7  21 NE10      30.31S
HESPERIA         N/A     46  12  25 CALM      30.53F
PALMDALE       SUNNY     47  10  22 NE8       30.34R
LANCASTER      SUNNY     47  14  26 N9        30.34F
EDWARDS AFB    PTSUNNY   47  12  24 N6        30.33S
DAGGETT        SUNNY     48   6  18 CALM      30.34F
29 PALMS N     SUNNY     49   7  18 N7        30.39F
NEEDLES        SUNNY     55   9  16 NE16      30.33F

$$

REGIONAL REPORTS

CITY           SKY/WX    TMP DP  RH WIND       PRES   REMARKS
SANTA BARBARA  SUNNY     61  30  31 SW8       30.29F
SANDBERG       SUNNY     40  10  29 E17G23    30.28F WCI  31
MT. WILSON       N/A    N/A N/A N/A MISG        N/A
LAS VEGAS NV   PTSUNNY   48   5  17 N5        30.30S
PHOENIX AZ     SUNNY     58  17  20 SW3       30.22F
TIJUANA        SUNNY     61  10  13 NW9       30.28S
ENSENADA NW      N/A     64  32  29 NW3       30.20S

$$

OFFSHORE ISLANDS

CITY           SKY/WX    TMP DP  RH WIND       PRES   REMARKS
CATALINA ARPT  SUNNY     54  14  20 E8        30.28F
SAN NICOLAS IS SUNNY    N/A N/A N/A NE6       30.28F

$$

MARINE AND OFFSHORE BUOY REPORTS

STATION/POSITION SKY/WX   TEMP    WIND        PRES    SWELL
                          AIR SEA DIR/SP/G            HT/PER/DIR
                          (F)     (DEG/KT/KT) (MB)    (FT/S/D)
TANNER BANKS               61 63  110/  4/  6 1025.1F   5/310/11
S CLEMENTE BASIN           58 64  360/  4/  6 1025.3F   3/300/12
SAN NICOLAS IS.               61                N/A     3/310/11
SO. S. ROSA ISLA           58 59   90/ 10/ 12 1025.5R   5/12
W. S. BARBARA CH           58 61  120/ 10/ 12 1025.3F   5/320/11
S. MONICA BASIN            58 63  130/  2/  4 1025.9F   2/280/13
S PEDRO CHANNEL               63                N/A     2/270/12
DANA POINT                    63                N/A     2/280/13
CMP PENDLETON NS              63                N/A     2/250/13
OCEANSIDE OFFSHR              63                N/A     2/270/13
TORREY PINES OTR              64                N/A     2/260/13
LA JOLLA 1                 60 63  290/  5/  8 1025.4F
MISSION BAY BUOY              63                N/A     2/280/13
SAN DIEGO BAY                 63              1025.7R
POINT LOMA SOUTH              65                N/A     2/270/13

$$



USA.gov is the U.S. government's official web portal to all federal, state and local government web resources and services.